User: anonymous   Login
Location: Ferma
(41.9500°N, 44.5167°E)
Time: 16:20:33
(UTC+00:00)
Language:

Milstar 3 Cent rocket - Orbit

View from above orbital plane
View from above orbital plane
View from above satellite
View from above satellite

Ground track
Ground track

The orbit data is extracted from the following two-line orbital elements,

1 25725U 99023B   22022.38068053  .00000084  00000-0  14587-3 0  9995
2 25725  28.3204  24.3438 2386614  35.4443 338.3477  9.67266957101373
Epoch (UTC): 22 January 2022 09:08:10
Eccentricity: 0.2386614
inclination: 28.3204°
perigee height: 706 km
apogee height: 5147 km
right ascension of ascending node: 24.3438°
argument of perigee: 35.4443°
revolutions per day: 9.67266957
mean anomaly at epoch: 338.3477°
orbit number at epoch: 10137

The dashed part of the orbit path shows where the satellite is in the earth's shadow,  

DLR